Portada
METAR-TAF:

METAR-TAF

Aeropuertos :

Rurrenabaque, Bolivia

latitud: 14-28S, longitud: 067-34W, altitud: 204 m

Observación

El informe se hizo hace 34 minutos, a las 18:00 UTC
Viento calma
Temperatura 34°C
Humedad 67%
Presión 1008 hPa
Visibilidad: 6000 m
Nubes dispersas a una altura de 2000 ft
Escasas nubes a una altura de 2300 ft, Cumulonimbus.
chaparrones en las proximidades

METAR: SLRQ 271800Z 00000KT 6000 VCSH SCT020 FEW023CB 34/27 Q1008

Hora: 14:34 (18:34 UTC)


TAF: falta

Observaciones y pronósticos meteorológicos de más de 4000 aeropuertos (mensajes METAR y TAF).

Los puntos amarillos y rojos representan las estaciones disponibles.

Ponga el ratón en el punto deseado para ver el nombre de la estación.

Haga clic para ver las observaciones y los pronósticos meteorológicos.

Para cambiar el mapa : haga clic en los botones verdes con una cruz de color negro para hacer un zoom, en el botón verde con un guión para alejar o en las flechas verdes para mapas adyacentes.


METAR-TAF: